Погода в Алабуге

Россия / Челябинская область     55°32′06″N   62°20′13″E
темп.,
°C
ветер,
м/с
пор.,
м/с
влажн.,
%
обл.,
%
осадки,
мм/ч
давл.,
гПа
погр.,
м
21 января, чт
чт2123:00−17з61386100 0.3 1012421
02:00−20з51387100 0.0 1014441
05:00−22з41288100 0.0 1014283
08:00−23з4109087 0.0 1014204
11:00−21з598885 0.0 1015376
14:00−18з589393 0.1 1014468
17:00−20зюз349394 0.1 101465
20:00−21з359295 0.0 101486
22 января, пт
пт2223:00−21з369392 0.0 1014114
02:00−21з359499 0.0 1015121
05:00−21з369699 0.1 1015140
08:00−22з3596100 0.0 101691
11:00−19зсз3696100 0.1 1017256
14:00−17ссз2493100 0.1 1018408
17:00−22ссв4697100 0.1 1020168
20:00−24ссв4897100 0.1 1023269
23 января, сб
сб2323:00−30с349676 0.1 102746
02:00−32ссз34984 0.0 103038
05:00−33ссз34985 0.0 103350
08:00−35с339815 0.0 103627
11:00−34ссз229626 0.0 103877
14:00−31з019224 0.0 1038136
17:00−31ююв239552 0.0 103735
20:00−29ююв4794100 0.0 1037209
24 января, вс
вс2423:00−27ю5995100 0.0 1035265
02:00−25ю5996100 0.1 1034306
05:00−23ююв4897100 0.3 1032309
08:00−22ююв4798100 0.5 1031266
11:00−21юв4697100 0.7 1031247
14:00−18юв4696100 0.3 1029259
17:00−17юв4796100 0.9 1028264
20:00−15ююв4796100 0.8 1027241
25 января, пн
пн2523:00−13юв3596100 1.6 1025169
02:00−10ю3396100 0.3 102479
05:00−4зсз2398100 0.7 102482
08:00−7ссв2397100 1.0 102580
11:00−9ссв2396100 2.1 1027116
14:00−10св2395100 0.3 1029144
17:00−13в229697 0.4 103021
20:00−12вюв229695 0.1 103143